Time,TemperatureF,DewpointF,PressureIn,WindDirection,WindDirectionDegrees,WindSpeedMPH,WindSpeedGustMPH,Humidity,HourlyPrecipIn,Conditions,Clouds,dailyrainin,SoftwareType,DateUTC
2013-05-25 00:00:00,73.0,0.0,30.07,East,84,0.0,4.0,0,0.00,,---,0.00,VWS V14.01,2013-05-25 05:00:00,
2013-05-25 00:04:00,73.0,0.0,30.07,ESE,113,0.0,2.0,0,0.00,,---,0.00,VWS V14.01,2013-05-25 05:04:00,
2013-05-25 00:09:00,73.0,0.0,30.07,ESE,112,3.0,3.0,0,0.00,,---,0.00,VWS V14.01,2013-05-25 05:09:00,
2013-05-25 00:14:00,73.2,0.0,30.07,ENE,76,0.0,6.0,0,0.00,,---,0.00,VWS V14.01,2013-05-25 05:14:00,
2013-05-25 00:15:00,73.2,0.0,30.07,ENE,76,0.0,6.0,0,0.00,,---,0.00,VWS V14.01,2013-05-25 05:15:00,
2013-05-25 00:19:00,73.2,0.0,30.07,ENE,63,4.0,5.0,0,0.00,,---,0.00,VWS V14.01,2013-05-25 05:19:00,
2013-05-25 00:24:00,73.3,0.0,30.07,SE,130,0.0,6.0,0,0.00,,---,0.00,VWS V14.01,2013-05-25 05:24:00,
2013-05-25 00:29:00,73.3,0.0,30.08,SE,130,0.0,6.0,0,0.00,,---,0.00,VWS V14.01,2013-05-25 05:29:00,
2013-05-25 00:30:00,73.3,0.0,30.08,SE,130,0.0,6.0,0,0.00,,---,0.00,VWS V14.01,2013-05-25 05:30:00,
2013-05-25 00:34:00,73.3,0.0,30.08,NNE,28,0.0,1.0,0,0.00,,---,0.00,VWS V14.01,2013-05-25 05:34:00,
2013-05-25 00:39:00,73.2,0.0,30.08,ENE,76,0.0,2.0,0,0.00,,---,0.00,VWS V14.01,2013-05-25 05:39:00,
2013-05-25 00:44:00,73.0,0.0,30.07,ENE,63,0.0,2.0,0,0.00,,---,0.00,VWS V14.01,2013-05-25 05:44:00,
2013-05-25 00:45:00,73.0,0.0,30.07,ENE,63,0.0,2.0,0,0.00,,---,0.00,VWS V14.01,2013-05-25 05:45:00,
2013-05-25 00:49:00,73.0,0.0,30.07,ENE,63,0.0,1.0,0,0.00,,---,0.00,VWS V14.01,2013-05-25 05:49:00,
2013-05-25 00:54:00,72.8,0.0,30.07,ENE,78,0.0,2.0,0,0.00,,---,0.00,VWS V14.01,2013-05-25 05:54:00,
2013-05-25 00:59:00,72.7,0.0,30.07,ESE,112,1.0,4.0,0,0.00,,---,0.00,VWS V14.01,2013-05-25 05:59:00,
2013-05-25 01:00:00,72.7,0.0,30.07,ESE,109,2.0,4.0,0,0.00,,---,0.00,VWS V14.01,2013-05-25 06:00:00,
2013-05-25 01:04:00,72.5,0.0,30.07,ESE,109,1.0,2.0,0,0.00,,---,0.00,VWS V14.01,2013-05-25 06:04:00,
2013-05-25 01:09:00,72.3,0.0,30.07,SE,132,0.0,2.0,0,0.00,,---,0.00,VWS V14.01,2013-05-25 06:09:00,
2013-05-25 01:14:00,72.1,0.0,30.07,SE,132,0.0,2.0,0,0.00,,---,0.00,VWS V14.01,2013-05-25 06:14:00,
2013-05-25 01:15:00,72.1,0.0,30.07,SE,132,0.0,2.0,0,0.00,,---,0.00,VWS V14.01,2013-05-25 06:15:00,
2013-05-25 01:19:00,72.1,0.0,30.07,SE,132,0.0,0.0,0,0.00,,---,0.00,VWS V14.01,2013-05-25 06:19:00,
2013-05-25 01:25:00,72.0,0.0,30.07,ESE,117,0.0,5.0,0,0.00,,---,0.00,VWS V14.01,2013-05-25 06:25:00,
2013-05-25 01:30:00,71.8,0.0,30.07,ESE,117,0.0,2.0,0,0.00,,---,0.00,VWS V14.01,2013-05-25 06:30:00,
2013-05-25 01:35:00,71.6,0.0,30.07,East,94,0.0,2.0,0,0.00,,---,0.00,VWS V14.01,2013-05-25 06:35:00,
2013-05-25 01:40:00,71.5,0.0,30.07,East,97,0.0,4.0,0,0.00,,---,0.00,VWS V14.01,2013-05-25 06:40:00,
2013-05-25 01:45:00,71.5,0.0,30.07,East,95,0.0,0.0,0,0.00,,---,0.00,VWS V14.01,2013-05-25 06:45:00,
2013-05-25 01:50:00,71.3,0.0,30.07,ESE,109,0.0,0.0,0,0.00,,---,0.00,VWS V14.01,2013-05-25 06:50:00,
2013-05-25 01:55:00,71.1,0.0,30.07,East,95,0.0,2.0,0,0.00,,---,0.00,VWS V14.01,2013-05-25 06:55:00,
2013-05-25 02:00:00,70.9,0.0,30.07,East,94,0.0,0.0,0,0.00,,---,0.00,VWS V14.01,2013-05-25 07:00:00,
2013-05-25 02:05:00,70.9,0.0,30.07,ENE,57,0.0,4.0,0,0.00,,---,0.00,VWS V14.01,2013-05-25 07:05:00,
2013-05-25 02:11:00,70.8,0.0,30.07,ENE,58,0.0,4.0,0,0.00,,---,0.00,VWS V14.01,2013-05-25 07:11:00,
2013-05-25 02:15:00,70.6,0.0,30.07,ENE,64,0.0,4.0,0,0.00,,---,0.00,VWS V14.01,2013-05-25 07:15:00,
2013-05-25 02:16:00,70.6,0.0,30.07,ENE,64,0.0,0.0,0,0.00,,---,0.00,VWS V14.01,2013-05-25 07:16:00,
2013-05-25 02:21:00,70.4,0.0,30.07,ENE,65,0.0,3.0,0,0.00,,---,0.00,VWS V14.01,2013-05-25 07:21:00,
2013-05-25 02:26:00,70.3,0.0,30.07,East,79,0.0,3.0,0,0.00,,---,0.00,VWS V14.01,2013-05-25 07:26:00,
2013-05-25 02:30:00,70.3,0.0,30.07,ENE,74,0.0,3.0,0,0.00,,---,0.00,VWS V14.01,2013-05-25 07:30:00,
2013-05-25 02:31:00,70.1,0.0,30.07,ENE,74,0.0,0.0,0,0.00,,---,0.00,VWS V14.01,2013-05-25 07:31:00,
2013-05-25 02:36:00,70.1,0.0,30.07,ENE,74,0.0,1.0,0,0.00,,---,0.00,VWS V14.01,2013-05-25 07:36:00,
2013-05-25 02:41:00,69.9,0.0,30.07,ENE,74,0.0,1.0,0,0.00,,---,0.00,VWS V14.01,2013-05-25 07:41:00,
2013-05-25 02:45:00,69.8,0.0,30.07,ENE,74,0.0,1.0,0,0.00,,---,0.00,VWS V14.01,2013-05-25 07:45:00,
2013-05-25 02:46:00,69.8,0.0,30.07,ENE,74,0.0,0.0,0,0.00,,---,0.00,VWS V14.01,2013-05-25 07:46:00,
2013-05-25 02:51:00,69.6,0.0,30.07,ENE,74,0.0,1.0,0,0.00,,---,0.00,VWS V14.01,2013-05-25 07:51:00,
2013-05-25 02:56:00,69.4,0.0,30.07,ENE,75,0.0,2.0,0,0.00,,---,0.00,VWS V14.01,2013-05-25 07:56:00,
2013-05-25 03:00:00,69.4,0.0,30.07,ENE,75,0.0,2.0,0,0.00,,---,0.00,VWS V14.01,2013-05-25 08:00:00,
2013-05-25 03:01:00,69.3,0.0,30.07,ENE,78,0.0,1.0,0,0.00,,---,0.00,VWS V14.01,2013-05-25 08:01:00,
2013-05-25 03:06:00,69.1,0.0,30.07,ENE,78,0.0,2.0,0,0.00,,---,0.00,VWS V14.01,2013-05-25 08:06:00,
2013-05-25 03:12:00,68.9,0.0,30.07,ENE,78,0.0,2.0,0,0.00,,---,0.00,VWS V14.01,2013-05-25 08:12:00,
2013-05-25 03:15:00,68.9,0.0,30.07,ENE,78,0.0,2.0,0,0.00,,---,0.00,VWS V14.01,2013-05-25 08:15:00,
2013-05-25 03:17:00,68.8,0.0,30.07,ENE,78,0.0,2.0,0,0.00,,---,0.00,VWS V14.01,2013-05-25 08:17:00,
2013-05-25 03:22:00,68.6,0.0,30.07,ESE,109,0.0,4.0,0,0.00,,---,0.00,VWS V14.01,2013-05-25 08:22:00,
2013-05-25 03:27:00,68.4,0.0,30.07,ESE,109,0.0,4.0,0,0.00,,---,0.00,VWS V14.01,2013-05-25 08:27:00,
2013-05-25 03:30:00,68.4,0.0,30.07,East,79,0.0,4.0,0,0.00,,---,0.00,VWS V14.01,2013-05-25 08:30:00,
2013-05-25 03:32:00,68.3,0.0,30.07,East,92,0.0,2.0,0,0.00,,---,0.00,VWS V14.01,2013-05-25 08:32:00,
2013-05-25 03:37:00,68.3,0.0,30.07,East,92,0.0,2.0,0,0.00,,---,0.00,VWS V14.01,2013-05-25 08:37:00,
2013-05-25 03:42:00,68.1,0.0,30.07,East,92,1.0,2.0,0,0.00,,---,0.00,VWS V14.01,2013-05-25 08:42:00,
2013-05-25 03:45:00,68.1,0.0,30.07,East,92,1.0,2.0,0,0.00,,---,0.00,VWS V14.01,2013-05-25 08:45:00,
2013-05-25 03:47:00,68.1,0.0,30.07,East,92,0.0,1.0,0,0.00,,---,0.00,VWS V14.01,2013-05-25 08:47:00,
2013-05-25 03:52:00,68.1,0.0,30.07,East,92,0.0,1.0,0,0.00,,---,0.00,VWS V14.01,2013-05-25 08:52:00,
2013-05-25 03:58:00,67.9,0.0,30.07,East,96,0.0,4.0,0,0.00,,---,0.00,VWS V14.01,2013-05-25 08:58:00,
2013-05-25 04:00:00,67.9,0.0,30.08,East,96,0.0,4.0,0,0.00,,---,0.00,VWS V14.01,2013-05-25 09:00:00,
2013-05-25 04:03:00,67.9,0.0,30.08,East,96,0.0,0.0,0,0.00,,---,0.00,VWS V14.01,2013-05-25 09:03:00,
2013-05-25 04:08:00,67.8,0.0,30.08,East,96,0.0,0.0,0,0.00,,---,0.00,VWS V14.01,2013-05-25 09:08:00,
2013-05-25 04:13:00,67.6,0.0,30.08,ESE,120,0.0,3.0,0,0.00,,---,0.00,VWS V14.01,2013-05-25 09:13:00,
2013-05-25 04:15:00,67.6,0.0,30.09,ESE,120,0.0,3.0,0,0.00,,---,0.00,VWS V14.01,2013-05-25 09:15:00,
2013-05-25 04:18:00,67.6,0.0,30.09,ESE,120,0.0,0.0,0,0.00,,---,0.00,VWS V14.01,2013-05-25 09:18:00,
2013-05-25 04:23:00,67.4,0.0,30.09,ESE,120,0.0,0.0,0,0.00,,---,0.00,VWS V14.01,2013-05-25 09:23:00,
2013-05-25 04:28:00,67.3,0.0,30.09,ESE,120,0.0,0.0,0,0.00,,---,0.00,VWS V14.01,2013-05-25 09:28:00,
2013-05-25 04:30:00,67.3,0.0,30.09,ESE,120,0.0,0.0,0,0.00,,---,0.00,VWS V14.01,2013-05-25 09:30:00,
2013-05-25 04:33:00,67.1,0.0,30.09,ESE,120,0.0,0.0,0,0.00,,---,0.00,VWS V14.01,2013-05-25 09:33:00,
2013-05-25 04:38:00,67.1,0.0,30.09,ESE,120,0.0,0.0,0,0.00,,---,0.00,VWS V14.01,2013-05-25 09:38:00,
2013-05-25 04:43:00,66.9,0.0,30.09,ESE,120,0.0,1.0,0,0.00,,---,0.00,VWS V14.01,2013-05-25 09:43:00,
2013-05-25 04:45:00,66.8,0.0,30.09,ESE,120,0.0,1.0,0,0.00,,---,0.00,VWS V14.01,2013-05-25 09:45:00,
2013-05-25 04:49:00,66.8,0.0,30.09,ESE,120,0.0,1.0,0,0.00,,---,0.00,VWS V14.01,2013-05-25 09:49:00,
2013-05-25 04:54:00,66.6,0.0,30.09,ESE,120,0.0,1.0,0,0.00,,---,0.00,VWS V14.01,2013-05-25 09:54:00,
2013-05-25 04:59:00,66.4,0.0,30.09,ESE,108,0.0,3.0,0,0.00,,---,0.00,VWS V14.01,2013-05-25 09:59:00,
2013-05-25 05:00:00,66.4,0.0,30.09,ESE,108,0.0,3.0,0,0.00,,---,0.00,VWS V14.01,2013-05-25 10:00:00,
2013-05-25 05:04:00,66.4,0.0,30.09,ESE,108,0.0,2.0,0,0.00,,---,0.00,VWS V14.01,2013-05-25 10:04:00,
2013-05-25 05:09:00,66.3,0.0,30.09,ESE,108,0.0,2.0,0,0.00,,---,0.00,VWS V14.01,2013-05-25 10:09:00,
2013-05-25 05:14:00,66.1,0.0,30.10,ESE,108,0.0,2.0,0,0.00,,---,0.00,VWS V14.01,2013-05-25 10:14:00,
2013-05-25 05:15:00,66.1,0.0,30.10,ESE,108,0.0,2.0,0,0.00,,---,0.00,VWS V14.01,2013-05-25 10:15:00,
2013-05-25 05:19:00,66.0,0.0,30.10,ESE,108,0.0,0.0,0,0.00,,---,0.00,VWS V14.01,2013-05-25 10:19:00,
2013-05-25 05:24:00,66.0,0.0,30.10,ESE,108,0.0,1.0,0,0.00,,---,0.00,VWS V14.01,2013-05-25 10:24:00,
2013-05-25 05:29:00,65.8,0.0,30.10,ESE,108,1.0,2.0,0,0.00,,---,0.00,VWS V14.01,2013-05-25 10:29:00,
2013-05-25 05:30:00,65.8,0.0,30.10,ESE,108,0.0,2.0,0,0.00,,---,0.00,VWS V14.01,2013-05-25 10:30:00,
2013-05-25 05:34:00,65.8,0.0,30.10,ESE,108,0.0,1.0,0,0.00,,---,0.00,VWS V14.01,2013-05-25 10:34:00,
2013-05-25 05:40:00,65.8,0.0,30.10,ESE,108,0.0,1.0,0,0.00,,---,0.00,VWS V14.01,2013-05-25 10:40:00,
2013-05-25 05:45:00,65.8,0.0,30.11,ESE,108,0.0,0.0,0,0.00,,---,0.00,VWS V14.01,2013-05-25 10:45:00,
2013-05-25 05:50:00,65.8,0.0,30.11,ESE,108,0.0,0.0,0,0.00,,---,0.00,VWS V14.01,2013-05-25 10:50:00,
2013-05-25 05:55:00,66.0,0.0,30.11,East,82,0.0,4.0,0,0.00,,---,0.00,VWS V14.01,2013-05-25 10:55:00,
2013-05-25 06:00:00,66.0,0.0,30.11,ENE,62,0.0,0.0,0,0.00,,---,0.00,VWS V14.01,2013-05-25 11:00:00,
2013-05-25 06:05:00,66.0,0.0,30.11,ENE,71,3.0,3.0,0,0.00,,---,0.00,VWS V14.01,2013-05-25 11:05:00,
2013-05-25 06:10:00,65.8,0.0,30.11,ENE,64,0.0,4.0,0,0.00,,---,0.00,VWS V14.01,2013-05-25 11:10:00,
2013-05-25 06:15:00,65.6,0.0,30.12,East,97,0.0,0.0,0,0.00,,---,0.00,VWS V14.01,2013-05-25 11:15:00,
2013-05-25 06:20:00,65.6,0.0,30.12,ESE,116,0.0,5.0,0,0.00,,---,0.00,VWS V14.01,2013-05-25 11:20:00,
2013-05-25 06:25:00,65.5,0.0,30.12,ESE,105,0.0,5.0,0,0.00,,---,0.00,VWS V14.01,2013-05-25 11:25:00,
2013-05-25 06:30:00,65.5,0.0,30.12,East,80,0.0,2.0,0,0.00,,---,0.00,VWS V14.01,2013-05-25 11:30:00,
2013-05-25 06:36:00,65.5,0.0,30.12,ESE,102,1.0,3.0,0,0.00,,---,0.00,VWS V14.01,2013-05-25 11:36:00,
2013-05-25 06:41:00,65.6,0.0,30.12,North,5,0.0,4.0,0,0.00,,---,0.00,VWS V14.01,2013-05-25 11:41:00,
2013-05-25 06:45:00,65.6,0.0,30.13,SE,141,0.0,4.0,0,0.00,,---,0.00,VWS V14.01,2013-05-25 11:45:00,
2013-05-25 06:46:00,65.6,0.0,30.13,East,96,0.0,0.0,0,0.00,,---,0.00,VWS V14.01,2013-05-25 11:46:00,
2013-05-25 06:51:00,65.8,0.0,30.13,NE,52,0.0,4.0,0,0.00,,---,0.00,VWS V14.01,2013-05-25 11:51:00,
2013-05-25 06:56:00,65.8,0.0,30.13,East,90,0.0,4.0,0,0.00,,---,0.00,VWS V14.01,2013-05-25 11:56:00,
2013-05-25 07:00:00,66.0,0.0,30.13,ESE,114,0.0,6.0,0,0.00,,---,0.00,VWS V14.01,2013-05-25 12:00:00,
2013-05-25 07:01:00,66.1,0.0,30.13,East,101,0.0,4.0,0,0.00,,---,0.00,VWS V14.01,2013-05-25 12:01:00,
2013-05-25 07:06:00,66.3,0.0,30.13,ESE,123,0.0,4.0,0,0.00,,---,0.00,VWS V14.01,2013-05-25 12:06:00,
2013-05-25 07:11:00,66.4,0.0,30.13,ESE,112,0.0,5.0,0,0.00,,---,0.00,VWS V14.01,2013-05-25 12:11:00,
2013-05-25 07:15:00,66.6,0.0,30.14,ESE,107,1.0,5.0,0,0.00,,---,0.00,VWS V14.01,2013-05-25 12:15:00,
2013-05-25 07:16:00,66.8,0.0,30.14,NE,49,0.0,5.0,0,0.00,,---,0.00,VWS V14.01,2013-05-25 12:16:00,
2013-05-25 07:21:00,66.9,0.0,30.14,East,92,3.0,7.0,0,0.00,,---,0.00,VWS V14.01,2013-05-25 12:21:00,
2013-05-25 07:27:00,67.3,0.0,30.14,ESE,113,0.0,7.0,0,0.00,,---,0.00,VWS V14.01,2013-05-25 12:27:00,
2013-05-25 07:30:00,67.3,0.0,30.14,East,98,0.0,7.0,0,0.00,,---,0.00,VWS V14.01,2013-05-25 12:30:00,
2013-05-25 07:32:00,67.4,0.0,30.14,East,89,0.0,2.0,0,0.00,,---,0.00,VWS V14.01,2013-05-25 12:32:00,
2013-05-25 07:37:00,67.4,0.0,30.14,East,88,0.0,2.0,0,0.00,,---,0.00,VWS V14.01,2013-05-25 12:37:00,
2013-05-25 07:42:00,67.4,0.0,30.14,East,92,1.0,4.0,0,0.00,,---,0.00,VWS V14.01,2013-05-25 12:42:00,
2013-05-25 07:45:00,67.4,0.0,30.15,ESE,102,0.0,4.0,0,0.00,,---,0.00,VWS V14.01,2013-05-25 12:45:00,
2013-05-25 07:47:00,67.6,0.0,30.15,East,100,1.0,4.0,0,0.00,,---,0.00,VWS V14.01,2013-05-25 12:47:00,
2013-05-25 07:52:00,67.6,0.0,30.15,East,82,2.0,6.0,0,0.00,,---,0.00,VWS V14.01,2013-05-25 12:52:00,
2013-05-25 07:57:00,67.9,0.0,30.15,East,91,0.0,6.0,0,0.00,,---,0.00,VWS V14.01,2013-05-25 12:57:00,
2013-05-25 08:00:00,68.1,0.0,30.15,East,93,0.0,6.0,0,0.00,,---,0.00,VWS V14.01,2013-05-25 13:00:00,
2013-05-25 08:02:00,68.3,0.0,30.15,East,81,0.0,3.0,0,0.00,,---,0.00,VWS V14.01,2013-05-25 13:02:00,
2013-05-25 08:07:00,68.8,0.0,30.15,ENE,70,0.0,3.0,0,0.00,,---,0.00,VWS V14.01,2013-05-25 13:07:00,
2013-05-25 08:12:00,69.3,0.0,30.15,ESE,115,0.0,3.0,0,0.00,,---,0.00,VWS V14.01,2013-05-25 13:12:00,
2013-05-25 08:15:00,69.3,0.0,30.15,ESE,116,0.0,3.0,0,0.00,,---,0.00,VWS V14.01,2013-05-25 13:15:00,
2013-05-25 08:18:00,69.6,0.0,30.15,East,84,0.0,0.0,0,0.00,,---,0.00,VWS V14.01,2013-05-25 13:18:00,
2013-05-25 08:23:00,70.1,0.0,30.15,ESE,119,0.0,5.0,0,0.00,,---,0.00,VWS V14.01,2013-05-25 13:23:00,
2013-05-25 08:28:00,70.6,0.0,30.15,SSE,152,0.0,5.0,0,0.00,,---,0.00,VWS V14.01,2013-05-25 13:28:00,
2013-05-25 08:30:00,70.8,0.0,30.15,ESE,121,0.0,5.0,0,0.00,,---,0.00,VWS V14.01,2013-05-25 13:30:00,
2013-05-25 08:33:00,71.1,0.0,30.15,SE,142,4.0,5.0,0,0.00,,---,0.00,VWS V14.01,2013-05-25 13:33:00,
2013-05-25 08:38:00,71.1,0.0,30.15,SE,139,1.0,5.0,0,0.00,,---,0.00,VWS V14.01,2013-05-25 13:38:00,
2013-05-25 08:43:00,71.6,0.0,30.15,SE,137,0.0,5.0,0,0.00,,---,0.00,VWS V14.01,2013-05-25 13:43:00,
2013-05-25 08:45:00,71.8,0.0,30.15,SE,136,0.0,5.0,0,0.00,,---,0.00,VWS V14.01,2013-05-25 13:45:00,
2013-05-25 08:48:00,72.0,0.0,30.15,ESE,106,0.0,4.0,0,0.00,,---,0.00,VWS V14.01,2013-05-25 13:48:00,
2013-05-25 08:53:00,72.3,0.0,30.15,SE,126,0.0,7.0,0,0.00,,---,0.00,VWS V14.01,2013-05-25 13:53:00,
2013-05-25 08:58:00,72.8,0.0,30.15,NE,40,0.0,7.0,0,0.00,,---,0.00,VWS V14.01,2013-05-25 13:58:00,
2013-05-25 09:00:00,72.8,0.0,30.15,SE,127,0.0,7.0,0,0.00,,---,0.00,VWS V14.01,2013-05-25 14:00:00,
2013-05-25 09:03:00,73.2,0.0,30.15,ESE,115,0.0,0.0,0,0.00,,---,0.00,VWS V14.01,2013-05-25 14:03:00,
2013-05-25 09:09:00,73.7,0.0,30.15,SE,134,0.0,6.0,0,0.00,,---,0.00,VWS V14.01,2013-05-25 14:09:00,
2013-05-25 09:14:00,73.9,0.0,30.15,SE,138,1.0,6.0,0,0.00,,---,0.00,VWS V14.01,2013-05-25 14:14:00,
2013-05-25 09:15:00,73.9,0.0,30.15,SSE,162,1.0,7.0,0,0.00,,---,0.00,VWS V14.01,2013-05-25 14:15:00,
2013-05-25 09:19:00,74.0,0.0,30.15,ESE,115,0.0,9.0,0,0.00,,---,0.00,VWS V14.01,2013-05-25 14:19:00,
2013-05-25 09:24:00,74.2,0.0,30.15,SE,128,0.0,9.0,0,0.00,,---,0.00,VWS V14.01,2013-05-25 14:24:00,
2013-05-25 09:29:00,74.6,0.0,30.15,East,91,1.0,10.0,0,0.00,,---,0.00,VWS V14.01,2013-05-25 14:29:00,
2013-05-25 09:30:00,74.6,0.0,30.15,East,85,0.0,10.0,0,0.00,,---,0.00,VWS V14.01,2013-05-25 14:30:00,
2013-05-25 09:34:00,74.9,0.0,30.15,ENE,77,0.0,4.0,0,0.00,,---,0.00,VWS V14.01,2013-05-25 14:34:00,
2013-05-25 09:39:00,75.1,0.0,30.15,ESE,111,0.0,4.0,0,0.00,,---,0.00,VWS V14.01,2013-05-25 14:39:00,
2013-05-25 09:44:00,75.1,0.0,30.16,SSE,166,0.0,6.0,0,0.00,,---,0.00,VWS V14.01,2013-05-25 14:44:00,
2013-05-25 09:45:00,75.1,0.0,30.16,ENE,74,7.0,7.0,0,0.00,,---,0.00,VWS V14.01,2013-05-25 14:45:00,
2013-05-25 09:50:00,75.3,0.0,30.16,ESE,123,0.0,7.0,0,0.00,,---,0.00,VWS V14.01,2013-05-25 14:50:00,
2013-05-25 09:55:00,76.0,0.0,30.16,ENE,64,1.0,7.0,0,0.00,,---,0.00,VWS V14.01,2013-05-25 14:55:00,
2013-05-25 10:00:00,76.3,0.0,30.16,ESE,113,0.0,5.0,0,0.00,,---,0.00,VWS V14.01,2013-05-25 15:00:00,
2013-05-25 10:05:00,76.8,0.0,30.16,East,99,0.0,5.0,0,0.00,,---,0.00,VWS V14.01,2013-05-25 15:05:00,
2013-05-25 10:10:00,77.6,0.0,30.16,ESE,108,0.0,5.0,0,0.00,,---,0.00,VWS V14.01,2013-05-25 15:10:00,
2013-05-25 10:15:00,77.7,0.0,30.15,ENE,72,1.0,1.0,0,0.00,,---,0.00,VWS V14.01,2013-05-25 15:15:00,
2013-05-25 10:20:00,78.1,0.0,30.15,SSE,148,3.0,4.0,0,0.00,,---,0.00,VWS V14.01,2013-05-25 15:20:00,
2013-05-25 10:25:00,78.3,0.0,30.15,ENE,63,0.0,5.0,0,0.00,,---,0.00,VWS V14.01,2013-05-25 15:25:00,
2013-05-25 10:30:00,78.3,0.0,30.15,SE,129,0.0,5.0,0,0.00,,---,0.00,VWS V14.01,2013-05-25 15:30:00,
2013-05-25 10:35:00,78.6,0.0,30.15,ESE,111,0.0,5.0,0,0.00,,---,0.00,VWS V14.01,2013-05-25 15:35:00,
2013-05-25 10:41:00,78.6,0.0,30.15,NE,55,0.0,5.0,0,0.00,,---,0.00,VWS V14.01,2013-05-25 15:41:00,
2013-05-25 10:45:00,78.6,0.0,30.15,ESE,119,4.0,5.0,0,0.00,,---,0.00,VWS V14.01,2013-05-25 15:45:00,
2013-05-25 10:46:00,78.6,0.0,30.15,ESE,106,0.0,4.0,0,0.00,,---,0.00,VWS V14.01,2013-05-25 15:46:00,
2013-05-25 10:51:00,78.5,0.0,30.15,SE,128,0.0,5.0,0,0.00,,---,0.00,VWS V14.01,2013-05-25 15:51:00,
2013-05-25 10:56:00,79.0,0.0,30.15,SE,130,0.0,5.0,0,0.00,,---,0.00,VWS V14.01,2013-05-25 15:56:00,
2013-05-25 11:00:00,79.6,0.0,30.15,East,95,0.0,5.0,0,0.00,,---,0.00,VWS V14.01,2013-05-25 16:00:00,
2013-05-25 11:01:00,79.6,0.0,30.15,ESE,105,3.0,5.0,0,0.00,,---,0.00,VWS V14.01,2013-05-25 16:01:00,
2013-05-25 11:06:00,79.8,0.0,30.15,ESE,123,0.0,6.0,0,0.00,,---,0.00,VWS V14.01,2013-05-25 16:06:00,
2013-05-25 11:11:00,80.1,0.0,30.15,SSE,154,0.0,6.0,0,0.00,,---,0.00,VWS V14.01,2013-05-25 16:11:00,
2013-05-25 11:15:00,79.9,0.0,30.15,ESE,102,0.0,6.0,0,0.00,,---,0.00,VWS V14.01,2013-05-25 16:15:00,
2013-05-25 11:16:00,79.9,0.0,30.15,SE,142,0.0,4.0,0,0.00,,---,0.00,VWS V14.01,2013-05-25 16:16:00,
2013-05-25 11:21:00,80.1,0.0,30.15,SE,136,0.0,4.0,0,0.00,,---,0.00,VWS V14.01,2013-05-25 16:21:00,
2013-05-25 11:26:00,80.5,0.0,30.15,East,98,0.0,6.0,0,0.00,,---,0.00,VWS V14.01,2013-05-25 16:26:00,
2013-05-25 11:30:00,80.5,0.0,30.15,ESE,113,0.0,6.0,0,0.00,,---,0.00,VWS V14.01,2013-05-25 16:30:00,
2013-05-25 11:32:00,80.7,0.0,30.15,ESE,113,0.0,0.0,0,0.00,,---,0.00,VWS V14.01,2013-05-25 16:32:00,
2013-05-25 11:37:00,80.9,0.0,30.15,SE,127,1.0,3.0,0,0.00,,---,0.00,VWS V14.01,2013-05-25 16:37:00,
2013-05-25 11:42:00,80.7,0.0,30.15,SSE,155,1.0,6.0,0,0.00,,---,0.00,VWS V14.01,2013-05-25 16:42:00,
2013-05-25 11:45:00,80.7,0.0,30.14,SE,131,0.0,6.0,0,0.00,,---,0.00,VWS V14.01,2013-05-25 16:45:00,
2013-05-25 11:47:00,80.7,0.0,30.14,South,170,0.0,2.0,0,0.00,,---,0.00,VWS V14.01,2013-05-25 16:47:00,
2013-05-25 11:52:00,80.9,0.0,30.14,SSE,154,0.0,2.0,0,0.00,,---,0.00,VWS V14.01,2013-05-25 16:52:00,
2013-05-25 11:57:00,81.4,0.0,30.14,South,180,0.0,4.0,0,0.00,,---,0.00,VWS V14.01,2013-05-25 16:57:00,
2013-05-25 12:00:00,81.4,0.0,30.15,ESE,123,0.0,4.0,0,0.00,,---,0.00,VWS V14.01,2013-05-25 17:00:00,
2013-05-25 12:02:00,81.4,0.0,30.15,South,169,0.0,0.0,0,0.00,,---,0.00,VWS V14.01,2013-05-25 17:02:00,
2013-05-25 12:07:00,82.0,0.0,30.15,SE,130,0.0,1.0,0,0.00,,---,0.00,VWS V14.01,2013-05-25 17:07:00,
2013-05-25 12:12:00,82.4,0.0,30.15,ENE,67,1.0,6.0,0,0.00,,---,0.00,VWS V14.01,2013-05-25 17:12:00,
2013-05-25 12:15:00,82.2,0.0,30.15,SSW,202,0.0,6.0,0,0.00,,---,0.00,VWS V14.01,2013-05-25 17:15:00,
2013-05-25 12:18:00,82.4,0.0,30.15,South,169,0.0,0.0,0,0.00,,---,0.00,VWS V14.01,2013-05-25 17:18:00,
2013-05-25 12:23:00,82.8,0.0,30.15,ENE,59,0.0,1.0,0,0.00,,---,0.00,VWS V14.01,2013-05-25 17:23:00,
2013-05-25 12:28:00,82.4,0.0,30.15,South,172,0.0,6.0,0,0.00,,---,0.00,VWS V14.01,2013-05-25 17:28:00,
2013-05-25 12:30:00,82.2,0.0,30.14,South,172,0.0,6.0,0,0.00,,---,0.00,VWS V14.01,2013-05-25 17:30:00,
2013-05-25 12:33:00,82.4,0.0,30.14,South,190,0.0,1.0,0,0.00,,---,0.00,VWS V14.01,2013-05-25 17:33:00,
2013-05-25 12:38:00,82.4,0.0,30.14,SSW,202,0.0,1.0,0,0.00,,---,0.00,VWS V14.01,2013-05-25 17:38:00,
2013-05-25 12:43:00,82.2,0.0,30.14,SSE,156,0.0,5.0,0,0.00,,---,0.00,VWS V14.01,2013-05-25 17:43:00,
2013-05-25 12:45:00,82.4,0.0,30.13,SSW,196,0.0,5.0,0,0.00,,---,0.00,VWS V14.01,2013-05-25 17:45:00,
2013-05-25 12:48:00,82.8,0.0,30.13,SSE,165,0.0,6.0,0,0.00,,---,0.00,VWS V14.01,2013-05-25 17:48:00,
2013-05-25 12:53:00,82.8,0.0,30.13,SSW,202,0.0,6.0,0,0.00,,---,0.00,VWS V14.01,2013-05-25 17:53:00,
2013-05-25 12:58:00,82.8,0.0,30.13,SSW,212,0.0,6.0,0,0.00,,---,0.00,VWS V14.01,2013-05-25 17:58:00,
2013-05-25 13:00:00,82.8,0.0,30.13,SSW,195,0.0,6.0,0,0.00,,---,0.00,VWS V14.01,2013-05-25 18:00:00,
2013-05-25 13:04:00,83.0,0.0,30.13,ESE,113,0.0,0.0,0,0.00,,---,0.00,VWS V14.01,2013-05-25 18:04:00,
2013-05-25 13:09:00,83.2,0.0,30.13,South,174,0.0,0.0,0,0.00,,---,0.00,VWS V14.01,2013-05-25 18:09:00,
2013-05-25 13:14:00,83.2,0.0,30.12,South,178,0.0,5.0,0,0.00,,---,0.00,VWS V14.01,2013-05-25 18:14:00,
2013-05-25 13:15:00,83.2,0.0,30.12,South,178,0.0,5.0,0,0.00,,---,0.00,VWS V14.01,2013-05-25 18:15:00,
2013-05-25 13:19:00,83.4,0.0,30.12,SSW,200,0.0,0.0,0,0.00,,---,0.00,VWS V14.01,2013-05-25 18:19:00,
2013-05-25 13:24:00,83.6,0.0,30.12,South,183,0.0,1.0,0,0.00,,---,0.00,VWS V14.01,2013-05-25 18:24:00,
2013-05-25 13:29:00,83.6,0.0,30.12,ESE,113,0.0,1.0,0,0.00,,---,0.00,VWS V14.01,2013-05-25 18:29:00,
2013-05-25 13:30:00,83.6,0.0,30.12,ESE,112,0.0,1.0,0,0.00,,---,0.00,VWS V14.01,2013-05-25 18:30:00,
2013-05-25 13:34:00,83.6,0.0,30.12,ESE,105,0.0,5.0,0,0.00,,---,0.00,VWS V14.01,2013-05-25 18:34:00,
2013-05-25 13:39:00,83.2,0.0,30.12,SSW,198,0.0,5.0,0,0.00,,---,0.00,VWS V14.01,2013-05-25 18:39:00,
2013-05-25 13:44:00,83.8,0.0,30.12,SE,134,0.0,5.0,0,0.00,,---,0.00,VWS V14.01,2013-05-25 18:44:00,
2013-05-25 13:45:00,83.8,0.0,30.12,SE,134,0.0,5.0,0,0.00,,---,0.00,VWS V14.01,2013-05-25 18:45:00,
2013-05-25 13:49:00,84.1,0.0,30.12,East,97,5.0,5.0,0,0.00,,---,0.00,VWS V14.01,2013-05-25 18:49:00,
2013-05-25 13:55:00,84.3,0.0,30.12,NE,54,1.0,5.0,0,0.00,,---,0.00,VWS V14.01,2013-05-25 18:55:00,
2013-05-25 14:00:00,84.5,0.0,30.12,SSE,151,1.0,1.0,0,0.00,,---,0.00,VWS V14.01,2013-05-25 19:00:00,
2013-05-25 14:05:00,84.3,0.0,30.12,SE,134,0.0,5.0,0,0.00,,---,0.00,VWS V14.01,2013-05-25 19:05:00,
2013-05-25 14:10:00,84.3,0.0,30.12,SE,134,0.0,5.0,0,0.00,,---,0.00,VWS V14.01,2013-05-25 19:10:00,
2013-05-25 14:15:00,84.9,0.0,30.11,SSE,158,0.0,0.0,0,0.00,,---,0.00,VWS V14.01,2013-05-25 19:15:00,
2013-05-25 14:20:00,84.9,0.0,30.11,SSE,152,0.0,0.0,0,0.00,,---,0.00,VWS V14.01,2013-05-25 19:20:00,
2013-05-25 14:25:00,84.7,0.0,30.11,South,171,0.0,1.0,0,0.00,,---,0.00,VWS V14.01,2013-05-25 19:25:00,
2013-05-25 14:30:00,84.9,0.0,30.10,ENE,74,0.0,0.0,0,0.00,,---,0.00,VWS V14.01,2013-05-25 19:30:00,
2013-05-25 14:36:00,84.9,0.0,30.10,East,83,0.0,1.0,0,0.00,,---,0.00,VWS V14.01,2013-05-25 19:36:00,
2013-05-25 14:41:00,84.9,0.0,30.10,ESE,103,0.0,1.0,0,0.00,,---,0.00,VWS V14.01,2013-05-25 19:41:00,
2013-05-25 14:45:00,84.9,0.0,30.10,South,180,0.0,1.0,0,0.00,,---,0.00,VWS V14.01,2013-05-25 19:45:00,
2013-05-25 14:46:00,84.9,0.0,30.10,NE,35,0.0,0.0,0,0.00,,---,0.00,VWS V14.01,2013-05-25 19:46:00,
2013-05-25 14:51:00,85.1,0.0,30.10,East,86,0.0,1.0,0,0.00,,---,0.00,VWS V14.01,2013-05-25 19:51:00,
2013-05-25 14:56:00,84.9,0.0,30.10,NNE,24,0.0,1.0,0,0.00,,---,0.00,VWS V14.01,2013-05-25 19:56:00,
2013-05-25 15:00:00,85.3,0.0,30.10,NNE,29,0.0,1.0,0,0.00,,---,0.00,VWS V14.01,2013-05-25 20:00:00,
2013-05-25 15:01:00,85.3,0.0,30.10,East,87,0.0,0.0,0,0.00,,---,0.00,VWS V14.01,2013-05-25 20:01:00,
2013-05-25 15:06:00,85.5,0.0,30.10,East,91,0.0,6.0,0,0.00,,---,0.00,VWS V14.01,2013-05-25 20:06:00,
2013-05-25 15:11:00,85.3,0.0,30.10,NNW,331,2.0,6.0,0,0.00,,---,0.00,VWS V14.01,2013-05-25 20:11:00,
2013-05-25 15:15:00,85.5,0.0,30.09,North,351,0.0,6.0,0,0.00,,---,0.00,VWS V14.01,2013-05-25 20:15:00,
2013-05-25 15:16:00,85.7,0.0,30.09,ESE,123,0.0,3.0,0,0.00,,---,0.00,VWS V14.01,2013-05-25 20:16:00,
2013-05-25 15:21:00,85.3,0.0,30.09,SE,130,0.0,3.0,0,0.00,,---,0.00,VWS V14.01,2013-05-25 20:21:00,
2013-05-25 15:26:00,85.5,0.0,30.09,SE,130,0.0,3.0,0,0.00,,---,0.00,VWS V14.01,2013-05-25 20:26:00,
2013-05-25 15:30:00,85.9,0.0,30.09,SE,130,0.0,3.0,0,0.00,,---,0.00,VWS V14.01,2013-05-25 20:30:00,
2013-05-25 15:32:00,86.3,0.0,30.09,NE,34,5.0,5.0,0,0.00,,---,0.00,VWS V14.01,2013-05-25 20:32:00,
2013-05-25 15:37:00,85.9,0.0,30.09,NNE,24,0.0,7.0,0,0.00,,---,0.00,VWS V14.01,2013-05-25 20:37:00,
2013-05-25 15:42:00,85.7,0.0,30.09,NE,44,0.0,7.0,0,0.00,,---,0.00,VWS V14.01,2013-05-25 20:42:00,
2013-05-25 15:45:00,85.5,0.0,30.09,North,5,2.0,7.0,0,0.00,,---,0.00,VWS V14.01,2013-05-25 20:45:00,
2013-05-25 15:47:00,85.5,0.0,30.09,North,5,1.0,3.0,0,0.00,,---,0.00,VWS V14.01,2013-05-25 20:47:00,
2013-05-25 15:52:00,85.5,0.0,30.09,North,5,0.0,3.0,0,0.00,,---,0.00,VWS V14.01,2013-05-25 20:52:00,
2013-05-25 15:57:00,85.9,0.0,30.09,North,5,2.0,3.0,0,0.00,,---,0.00,VWS V14.01,2013-05-25 20:57:00,
2013-05-25 16:00:00,85.9,0.0,30.08,NNE,33,2.0,4.0,0,0.00,,---,0.00,VWS V14.01,2013-05-25 21:00:00,
2013-05-25 16:02:00,85.9,0.0,30.08,East,81,1.0,5.0,0,0.00,,---,0.00,VWS V14.01,2013-05-25 21:02:00,
2013-05-25 16:07:00,85.5,0.0,30.08,East,101,0.0,5.0,0,0.00,,---,0.00,VWS V14.01,2013-05-25 21:07:00,
2013-05-25 16:12:00,85.1,0.0,30.08,NNE,20,0.0,5.0,0,0.00,,---,0.00,VWS V14.01,2013-05-25 21:12:00,
2013-05-25 16:15:00,84.9,0.0,30.08,NE,42,3.0,5.0,0,0.00,,---,0.00,VWS V14.01,2013-05-25 21:15:00,
2013-05-25 16:17:00,84.7,0.0,30.08,NE,42,0.0,3.0,0,0.00,,---,0.00,VWS V14.01,2013-05-25 21:17:00,
2013-05-25 16:23:00,84.5,0.0,30.08,NE,51,0.0,3.0,0,0.00,,---,0.00,VWS V14.01,2013-05-25 21:23:00,
2013-05-25 16:28:00,84.3,0.0,30.08,North,355,0.0,4.0,0,0.00,,---,0.00,VWS V14.01,2013-05-25 21:28:00,
2013-05-25 16:30:00,84.3,0.0,30.07,ESE,108,2.0,5.0,0,0.00,,---,0.00,VWS V14.01,2013-05-25 21:30:00,
2013-05-25 16:33:00,84.3,0.0,30.07,ESE,108,0.0,2.0,0,0.00,,---,0.00,VWS V14.01,2013-05-25 21:33:00,
2013-05-25 16:38:00,84.3,0.0,30.07,ESE,109,0.0,4.0,0,0.00,,---,0.00,VWS V14.01,2013-05-25 21:38:00,
2013-05-25 16:43:00,84.5,0.0,30.07,East,86,0.0,6.0,0,0.00,,---,0.00,VWS V14.01,2013-05-25 21:43:00,
2013-05-25 16:45:00,84.5,0.0,30.07,East,86,0.0,6.0,0,0.00,,---,0.00,VWS V14.01,2013-05-25 21:45:00,
2013-05-25 16:48:00,84.9,0.0,30.07,NNE,25,0.0,4.0,0,0.00,,---,0.00,VWS V14.01,2013-05-25 21:48:00,
2013-05-25 16:53:00,85.1,0.0,30.07,NE,53,0.0,4.0,0,0.00,,---,0.00,VWS V14.01,2013-05-25 21:53:00,
2013-05-25 16:58:00,84.9,0.0,30.07,East,91,3.0,4.0,0,0.00,,---,0.00,VWS V14.01,2013-05-25 21:58:00,
2013-05-25 17:00:00,84.7,0.0,30.07,NNE,16,0.0,4.0,0,0.00,,---,0.00,VWS V14.01,2013-05-25 22:00:00,
2013-05-25 17:03:00,84.7,0.0,30.07,NNE,16,0.0,0.0,0,0.00,,---,0.00,VWS V14.01,2013-05-25 22:03:00,
2013-05-25 17:08:00,84.7,0.0,30.07,NNE,29,0.0,2.0,0,0.00,,---,0.00,VWS V14.01,2013-05-25 22:08:00,
2013-05-25 17:13:00,84.5,0.0,30.07,NNE,29,2.0,4.0,0,0.00,,---,0.00,VWS V14.01,2013-05-25 22:13:00,
2013-05-25 17:15:00,84.7,0.0,30.07,NNE,29,0.0,4.0,0,0.00,,---,0.00,VWS V14.01,2013-05-25 22:15:00,
2013-05-25 17:18:00,84.7,0.0,30.07,NNE,29,0.0,1.0,0,0.00,,---,0.00,VWS V14.01,2013-05-25 22:18:00,
2013-05-25 17:23:00,84.9,0.0,30.07,ENE,59,0.0,2.0,0,0.00,,---,0.00,VWS V14.01,2013-05-25 22:23:00,
2013-05-25 17:28:00,85.1,0.0,30.07,East,98,0.0,3.0,0,0.00,,---,0.00,VWS V14.01,2013-05-25 22:28:00,
2013-05-25 17:30:00,85.1,0.0,30.06,ENE,63,3.0,4.0,0,0.00,,---,0.00,VWS V14.01,2013-05-25 22:30:00,
2013-05-25 17:33:00,85.1,0.0,30.06,ENE,78,2.0,4.0,0,0.00,,---,0.00,VWS V14.01,2013-05-25 22:33:00,
2013-05-25 17:39:00,84.7,0.0,30.06,East,91,0.0,4.0,0,0.00,,---,0.00,VWS V14.01,2013-05-25 22:39:00,
2013-05-25 17:44:00,84.5,0.0,30.06,ESE,107,1.0,4.0,0,0.00,,---,0.00,VWS V14.01,2013-05-25 22:44:00,
2013-05-25 17:45:00,84.5,0.0,30.06,ESE,107,0.0,4.0,0,0.00,,---,0.00,VWS V14.01,2013-05-25 22:45:00,
2013-05-25 17:49:00,84.7,0.0,30.06,ESE,121,0.0,4.0,0,0.00,,---,0.00,VWS V14.01,2013-05-25 22:49:00,
2013-05-25 17:54:00,84.7,0.0,30.06,NNW,342,0.0,4.0,0,0.00,,---,0.00,VWS V14.01,2013-05-25 22:54:00,
2013-05-25 17:59:00,84.3,0.0,30.06,ENE,71,0.0,4.0,0,0.00,,---,0.00,VWS V14.01,2013-05-25 22:59:00,
2013-05-25 18:00:00,84.3,0.0,30.06,ENE,71,0.0,4.0,0,0.00,,---,0.00,VWS V14.01,2013-05-25 23:00:00,
2013-05-25 18:04:00,84.0,0.0,30.06,East,80,0.0,4.0,0,0.00,,---,0.00,VWS V14.01,2013-05-25 23:04:00,
2013-05-25 18:09:00,83.8,0.0,30.06,East,80,0.0,4.0,0,0.00,,---,0.00,VWS V14.01,2013-05-25 23:09:00,
2013-05-25 18:14:00,83.6,0.0,30.05,ENE,78,0.0,4.0,0,0.00,,---,0.00,VWS V14.01,2013-05-25 23:14:00,
2013-05-25 18:15:00,83.6,0.0,30.05,ENE,78,0.0,4.0,0,0.00,,---,0.00,VWS V14.01,2013-05-25 23:15:00,
2013-05-25 18:19:00,83.6,0.0,30.05,NE,40,0.0,4.0,0,0.00,,---,0.00,VWS V14.01,2013-05-25 23:19:00,
2013-05-25 18:24:00,83.0,0.0,30.05,ENE,69,0.0,4.0,0,0.00,,---,0.00,VWS V14.01,2013-05-25 23:24:00,
2013-05-25 18:29:00,82.6,0.0,30.05,ENE,69,0.0,4.0,0,0.00,,---,0.00,VWS V14.01,2013-05-25 23:29:00,
2013-05-25 18:30:00,82.6,0.0,30.05,ENE,69,0.0,4.0,0,0.00,,---,0.00,VWS V14.01,2013-05-25 23:30:00,
2013-05-25 18:35:00,82.0,0.0,30.05,ENE,69,0.0,1.0,0,0.00,,---,0.00,VWS V14.01,2013-05-25 23:35:00,
2013-05-25 18:40:00,81.4,0.0,30.05,ENE,69,0.0,1.0,0,0.00,,---,0.00,VWS V14.01,2013-05-25 23:40:00,
2013-05-25 18:45:00,81.1,0.0,30.05,ESE,119,0.0,0.0,0,0.00,,---,0.00,VWS V14.01,2013-05-25 23:45:00,
2013-05-25 18:50:00,80.7,0.0,30.05,ESE,103,1.0,4.0,0,0.00,,---,0.00,VWS V14.01,2013-05-25 23:50:00,
2013-05-25 18:55:00,80.3,0.0,30.05,East,93,0.0,4.0,0,0.00,,---,0.00,VWS V14.01,2013-05-25 23:55:00,
2013-05-25 19:00:00,80.1,0.0,30.05,East,93,0.0,0.0,0,0.00,,---,0.00,VWS V14.01,2013-05-26 00:00:00,
2013-05-25 19:05:00,79.9,0.0,30.05,East,93,0.0,0.0,0,0.00,,---,0.00,VWS V14.01,2013-05-26 00:05:00,
2013-05-25 19:10:00,79.8,0.0,30.05,East,92,0.0,3.0,0,0.00,,---,0.00,VWS V14.01,2013-05-26 00:10:00,
2013-05-25 19:15:00,79.4,0.0,30.06,East,92,0.0,0.0,0,0.00,,---,0.00,VWS V14.01,2013-05-26 00:15:00,
2013-05-25 19:21:00,79.2,0.0,30.06,East,92,0.0,0.0,0,0.00,,---,0.00,VWS V14.01,2013-05-26 00:21:00,
2013-05-25 19:26:00,78.5,0.0,30.06,East,92,0.0,0.0,0,0.00,,---,0.00,VWS V14.01,2013-05-26 00:26:00,
2013-05-25 19:30:00,78.3,0.0,30.06,East,92,0.0,0.0,0,0.00,,---,0.00,VWS V14.01,2013-05-26 00:30:00,
2013-05-25 19:31:00,78.3,0.0,30.06,East,92,0.0,0.0,0,0.00,,---,0.00,VWS V14.01,2013-05-26 00:31:00,
2013-05-25 19:36:00,77.6,0.0,30.06,East,92,0.0,0.0,0,0.00,,---,0.00,VWS V14.01,2013-05-26 00:36:00,
2013-05-25 19:41:00,77.2,0.0,30.06,East,92,0.0,1.0,0,0.00,,---,0.00,VWS V14.01,2013-05-26 00:41:00,
2013-05-25 19:45:00,77.0,0.0,30.06,East,92,0.0,1.0,0,0.00,,---,0.00,VWS V14.01,2013-05-26 00:45:00,
2013-05-25 19:46:00,76.8,0.0,30.06,East,92,0.0,0.0,0,0.00,,---,0.00,VWS V14.01,2013-05-26 00:46:00,
2013-05-25 19:51:00,76.7,0.0,30.06,ENE,72,0.0,3.0,0,0.00,,---,0.00,VWS V14.01,2013-05-26 00:51:00,
2013-05-25 19:56:00,76.5,0.0,30.06,ENE,72,0.0,3.0,0,0.00,,---,0.00,VWS V14.01,2013-05-26 00:56:00,
2013-05-25 20:00:00,76.3,0.0,30.06,ENE,72,0.0,3.0,0,0.00,,---,0.00,VWS V14.01,2013-05-26 01:00:00,
2013-05-25 20:01:00,76.3,0.0,30.06,ENE,72,0.0,0.0,0,0.00,,---,0.00,VWS V14.01,2013-05-26 01:01:00,
2013-05-25 20:07:00,76.0,0.0,30.06,ENE,72,0.0,1.0,0,0.00,,---,0.00,VWS V14.01,2013-05-26 01:07:00,
2013-05-25 20:12:00,75.8,0.0,30.06,ENE,72,0.0,1.0,0,0.00,,---,0.00,VWS V14.01,2013-05-26 01:12:00,
2013-05-25 20:15:00,75.6,0.0,30.06,ENE,72,0.0,1.0,0,0.00,,---,0.00,VWS V14.01,2013-05-26 01:15:00,
2013-05-25 20:17:00,75.4,0.0,30.06,ENE,72,0.0,0.0,0,0.00,,---,0.00,VWS V14.01,2013-05-26 01:17:00,
2013-05-25 20:22:00,75.3,0.0,30.06,ENE,72,0.0,0.0,0,0.00,,---,0.00,VWS V14.01,2013-05-26 01:22:00,
2013-05-25 20:27:00,75.1,0.0,30.06,ENE,72,0.0,0.0,0,0.00,,---,0.00,VWS V14.01,2013-05-26 01:27:00,
2013-05-25 20:30:00,74.9,0.0,30.06,ENE,72,0.0,0.0,0,0.00,,---,0.00,VWS V14.01,2013-05-26 01:30:00,
2013-05-25 20:32:00,74.7,0.0,30.06,ENE,72,0.0,0.0,0,0.00,,---,0.00,VWS V14.01,2013-05-26 01:32:00,
2013-05-25 20:37:00,74.7,0.0,30.06,ENE,72,0.0,0.0,0,0.00,,---,0.00,VWS V14.01,2013-05-26 01:37:00,
2013-05-25 20:42:00,74.4,0.0,30.06,ENE,72,0.0,0.0,0,0.00,,---,0.00,VWS V14.01,2013-05-26 01:42:00,
2013-05-25 20:45:00,74.4,0.0,30.07,ENE,72,0.0,0.0,0,0.00,,---,0.00,VWS V14.01,2013-05-26 01:45:00,
2013-05-25 20:47:00,74.4,0.0,30.07,ENE,72,0.0,0.0,0,0.00,,---,0.00,VWS V14.01,2013-05-26 01:47:00,
2013-05-25 20:52:00,74.0,0.0,30.07,ENE,72,0.0,0.0,0,0.00,,---,0.00,VWS V14.01,2013-05-26 01:52:00,
2013-05-25 20:57:00,73.9,0.0,30.07,ENE,72,0.0,0.0,0,0.00,,---,0.00,VWS V14.01,2013-05-26 01:57:00,
2013-05-25 21:00:00,73.9,0.0,30.07,ENE,72,0.0,0.0,0,0.00,,---,0.00,VWS V14.01,2013-05-26 02:00:00,
2013-05-25 21:03:00,73.7,0.0,30.07,ENE,72,0.0,0.0,0,0.00,,---,0.00,VWS V14.01,2013-05-26 02:03:00,
2013-05-25 21:08:00,73.5,0.0,30.07,ENE,72,0.0,0.0,0,0.00,,---,0.00,VWS V14.01,2013-05-26 02:08:00,
2013-05-25 21:13:00,73.3,0.0,30.07,ENE,72,0.0,0.0,0,0.00,,---,0.00,VWS V14.01,2013-05-26 02:13:00,
2013-05-25 21:15:00,73.2,0.0,30.07,ENE,72,0.0,0.0,0,0.00,,---,0.00,VWS V14.01,2013-05-26 02:15:00,
2013-05-25 21:18:00,73.2,0.0,30.07,ENE,72,0.0,0.0,0,0.00,,---,0.00,VWS V14.01,2013-05-26 02:18:00,
2013-05-25 21:23:00,73.0,0.0,30.07,ENE,72,0.0,0.0,0,0.00,,---,0.00,VWS V14.01,2013-05-26 02:23:00,
2013-05-25 21:28:00,72.8,0.0,30.07,ENE,72,0.0,0.0,0,0.00,,---,0.00,VWS V14.01,2013-05-26 02:28:00,
2013-05-25 21:30:00,72.8,0.0,30.07,ENE,72,0.0,0.0,0,0.00,,---,0.00,VWS V14.01,2013-05-26 02:30:00,
2013-05-25 21:33:00,72.7,0.0,30.07,ENE,72,0.0,0.0,0,0.00,,---,0.00,VWS V14.01,2013-05-26 02:33:00,
2013-05-25 21:38:00,72.5,0.0,30.07,ENE,72,0.0,0.0,0,0.00,,---,0.00,VWS V14.01,2013-05-26 02:38:00,
2013-05-25 21:43:00,72.5,0.0,30.07,ENE,72,0.0,0.0,0,0.00,,---,0.00,VWS V14.01,2013-05-26 02:43:00,
2013-05-25 21:45:00,72.5,0.0,30.07,ENE,72,0.0,0.0,0,0.00,,---,0.00,VWS V14.01,2013-05-26 02:45:00,
2013-05-25 21:49:00,72.3,0.0,30.07,ENE,72,0.0,0.0,0,0.00,,---,0.00,VWS V14.01,2013-05-26 02:49:00,
2013-05-25 21:54:00,72.1,0.0,30.07,ENE,72,0.0,0.0,0,0.00,,---,0.00,VWS V14.01,2013-05-26 02:54:00,
2013-05-25 21:59:00,72.1,0.0,30.08,ENE,72,0.0,0.0,0,0.00,,---,0.00,VWS V14.01,2013-05-26 02:59:00,
2013-05-25 22:00:00,72.1,0.0,30.08,ENE,72,0.0,0.0,0,0.00,,---,0.00,VWS V14.01,2013-05-26 03:00:00,
2013-05-25 22:04:00,72.0,0.0,30.08,ENE,72,0.0,0.0,0,0.00,,---,0.00,VWS V14.01,2013-05-26 03:04:00,
2013-05-25 22:09:00,72.0,0.0,30.08,ENE,72,0.0,0.0,0,0.00,,---,0.00,VWS V14.01,2013-05-26 03:09:00,
2013-05-25 22:14:00,72.0,0.0,30.09,ENE,72,0.0,0.0,0,0.00,,---,0.00,VWS V14.01,2013-05-26 03:14:00,
2013-05-25 22:15:00,72.0,0.0,30.09,ENE,72,0.0,0.0,0,0.00,,---,0.00,VWS V14.01,2013-05-26 03:15:00,
2013-05-25 22:19:00,71.8,0.0,30.09,ENE,72,0.0,0.0,0,0.00,,---,0.00,VWS V14.01,2013-05-26 03:19:00,
2013-05-25 22:24:00,71.6,0.0,30.09,ENE,72,0.0,0.0,0,0.00,,---,0.00,VWS V14.01,2013-05-26 03:24:00,
2013-05-25 22:29:00,71.3,0.0,30.08,ENE,72,0.0,0.0,0,0.00,,---,0.00,VWS V14.01,2013-05-26 03:29:00,
2013-05-25 22:30:00,71.1,0.0,30.08,ENE,72,0.0,0.0,0,0.00,,---,0.00,VWS V14.01,2013-05-26 03:30:00,
2013-05-25 22:34:00,71.1,0.0,30.08,ENE,72,0.0,0.0,0,0.00,,---,0.00,VWS V14.01,2013-05-26 03:34:00,
2013-05-25 22:40:00,70.9,0.0,30.08,ENE,72,0.0,0.0,0,0.00,,---,0.00,VWS V14.01,2013-05-26 03:40:00,
2013-05-25 22:45:00,70.8,0.0,30.09,ENE,72,0.0,0.0,0,0.00,,---,0.00,VWS V14.01,2013-05-26 03:45:00,
2013-05-25 22:50:00,70.6,0.0,30.09,ENE,72,0.0,0.0,0,0.00,,---,0.00,VWS V14.01,2013-05-26 03:50:00,
2013-05-25 22:55:00,70.4,0.0,30.09,ENE,72,0.0,0.0,0,0.00,,---,0.00,VWS V14.01,2013-05-26 03:55:00,
2013-05-25 23:00:00,70.4,0.0,30.09,ENE,72,0.0,0.0,0,0.00,,---,0.00,VWS V14.01,2013-05-26 04:00:00,
2013-05-25 23:01:00,70.4,0.0,30.09,ENE,72,0.0,0.0,0,0.00,,---,0.00,VWS V14.01,2013-05-26 04:01:00,
2013-05-25 23:02:00,70.3,0.0,30.09,ENE,72,0.0,0.0,0,0.00,,---,0.00,VWS V14.01,2013-05-26 04:02:00,
2013-05-25 23:04:00,70.3,0.0,30.09,ENE,72,0.0,0.0,0,0.00,,---,0.00,VWS V14.01,2013-05-26 04:04:00,
2013-05-25 23:09:00,70.1,0.0,30.09,ENE,72,0.0,0.0,0,0.00,,---,0.00,VWS V14.01,2013-05-26 04:09:00,
2013-05-25 23:14:00,69.9,0.0,30.08,ENE,72,0.0,0.0,0,0.00,,---,0.00,VWS V14.01,2013-05-26 04:14:00,
2013-05-25 23:15:00,69.9,0.0,30.08,ENE,72,0.0,0.0,0,0.00,,---,0.00,VWS V14.01,2013-05-26 04:15:00,
2013-05-25 23:19:00,69.9,0.0,30.08,ENE,72,0.0,0.0,0,0.00,,---,0.00,VWS V14.01,2013-05-26 04:19:00,
2013-05-25 23:24:00,69.8,0.0,30.08,ENE,72,0.0,0.0,0,0.00,,---,0.00,VWS V14.01,2013-05-26 04:24:00,
2013-05-25 23:29:00,69.4,0.0,30.08,ENE,72,0.0,0.0,0,0.00,,---,0.00,VWS V14.01,2013-05-26 04:29:00,
2013-05-25 23:30:00,69.4,0.0,30.08,ENE,72,0.0,0.0,0,0.00,,---,0.00,VWS V14.01,2013-05-26 04:30:00,
2013-05-25 23:34:00,69.3,0.0,30.08,ENE,72,0.0,0.0,0,0.00,,---,0.00,VWS V14.01,2013-05-26 04:34:00,
2013-05-25 23:39:00,69.3,0.0,30.08,ENE,72,0.0,0.0,0,0.00,,---,0.00,VWS V14.01,2013-05-26 04:39:00,
2013-05-25 23:44:00,69.1,0.0,30.07,ENE,72,0.0,0.0,0,0.00,,---,0.00,VWS V14.01,2013-05-26 04:44:00,
2013-05-25 23:45:00,69.1,0.0,30.07,ENE,72,0.0,0.0,0,0.00,,---,0.00,VWS V14.01,2013-05-26 04:45:00,
2013-05-25 23:49:00,69.1,0.0,30.07,ENE,72,0.0,0.0,0,0.00,,---,0.00,VWS V14.01,2013-05-26 04:49:00,
2013-05-25 23:54:00,68.9,0.0,30.07,ENE,72,0.0,0.0,0,0.00,,---,0.00,VWS V14.01,2013-05-26 04:54:00,